Miscellaneous Local Product
Issued by NWS Hastings, NE

Home | Current Version | Previous Version | Graphics & Text | Print | Product List | Glossary On
Versions: 1 2 3 4 5 6 7 8 9 10 11 12 13 14 15 16 17 18 19 20 21 22 23 24 25 26 27 28 29 30 31 32 33 34 35 36 37 38 39 40 41 42 43 44 45 46 47 48 49 50
493
AXUS43 KGID 221402
MISGRI

GID CWA HOURLY WEATHER ROUNDUP
NATIONAL WEATHER SERVICE HASTINGS NE
800 AM CST SUN JAN 22 2017

NOTE: "FAIR" INDICATES FEW OR NO CLOUDS BELOW 12,000 FEET WITH NO
SIGNIFICANT WEATHER AND/OR OBSTRUCTIONS TO VISIBILITY.

...SOUTH CENTRAL NEBRASKA...

CITY           SKY/WX    TMP DP  RH WIND       PRES   REMARKS
GRAND ISLAND   CLEAR     27  26  96 NW7       29.75R WCI  19
HASTINGS       CLEAR     31  27  85 NW13      29.75R WCI  21
KEARNEY        CLEAR    N/A N/A N/A MISG        N/A
ORD            CLEAR     28  23  81 NW9       29.75R WCI  19
YORK           CLEAR     32  30  93 N12       29.73R WCI  23
AURORA         CLEAR     30  29  94 NW14      29.74R WCI  20
LEXINGTON      CLEAR     28  26  91 W8        29.78R WCI  20
HOLDREGE       CLEAR     30  28  90 NW10      29.76R WCI  21
HEBRON         PTCLDY    32  29  91 NW6       29.74R WCI  26

...NEBRASKA PANHANDLE...

CITY           SKY/WX    TMP DP  RH WIND       PRES   REMARKS
CHADRON        CLEAR     25  19  78 SW9       29.84R WCI  15
ALLIANCE       CLEAR     19  16  88 W12       29.82R WCI   7
SCOTTSBLUFF    CLEAR     24  19  81 W8        29.86R WCI  15
SIDNEY         CLEAR     27  21  78 NW16      29.84R WCI  15

...WESTERN AND NORTH CENTRAL NEBRASKA...

CITY           SKY/WX    TMP DP  RH WIND       PRES   REMARKS
VALENTINE      CLOUDY    22  18  85 W7        29.79R WCI  13
AINSWORTH      CLOUDY    25  24  94 W7        29.78R WCI  18
ONEILL         CLOUDY    25  24  95 NW7       29.77R WCI  17
BROKEN BOW     CLEAR     31  25  78 NW8       29.77R WCI  23
IMPERIAL       CLOUDY    28  23  81 NW9       29.83R WCI  19
NORTH PLATTE   CLOUDY    26  23  88 W7        29.81R WCI  18
MCCOOK         CLEAR     25  24  96 SW6       29.81R WCI  18

...EASTERN NEBRASKA...

CITY           SKY/WX    TMP DP  RH WIND       PRES   REMARKS
NORFOLK        CLOUDY    29  27  92 N12       29.75R WCI  19
SO SIOUX CITY  CLOUDY    34  30  85 NW15      29.73R WCI  24
TEKAMAH        CLOUDY    33  29  85 NW13      29.74R WCI  24
COLUMBUS       CLOUDY    30  27  86 N9        29.76R WCI  22
ALBION         CLEAR     28  23  79 N5        29.76R WCI  23
OMAHA EPPLEY   CLOUDY    33  28  81 N14       29.72R WCI  23
MILLARD        CLOUDY    35  31  88 NW8       29.73R WCI  28
LINCOLN        CLOUDY    31  30  96 N9        29.75R WCI  23
NEBRASKA CITY  CLOUDY    31  31  99 N13       29.72R WCI  22
BEATRICE       PTCLDY    27  26  98 N5        29.72R FOG     WCI  22
FALLS CITY     CLOUDY    31  30  96 N10       29.70R WCI  22

...NORTHERN KANSAS...

CITY           SKY/WX    TMP DP  RH WIND       PRES   REMARKS
GOODLAND       CLEAR     30  26  85 NW13      29.81R WCI  20
HILL CITY      CLEAR     31  29  92 NW8       29.79R WCI  23
NORTON         SUNNY     30  25  80 NW13      29.77R WCI  20
PHILLIPSBURG   CLEAR     32  30  93 NW9       29.77R WCI  24
SMITH CENTER   CLEAR     28  27  93 NW7       29.77R WCI  21
HAYS           CLEAR     32  29  88 N9        29.77R WCI  24
RUSSELL        CLEAR     31  29  92 N8        29.75R WCI  23
CONCORDIA      CLEAR     31  29  92 NW7       29.73R WCI  24
SALINA         CLOUDY    36  32  85 NW8       29.73R WCI  30
TOPEKA         CLOUDY    41  37  86 N12       29.66R



USA.gov is the U.S. government's official web portal to all federal, state and local government web resources and services.